Weather Roundup
Issued by NWS

Home | Current Version | Previous Version | Graphics & Text | Print | Product List | Glossary Off
Versions: 1 2 3 4 5 6 7 8 9 10 11 12 13 14 15 16 17 18 19 20 21 22 23 24 25 26 27 28 29 30 31 32 33 34 35 36 37 38 39 40 41 42 43 44 45 46 47 48 49 50

000
NZUS93 KARX 171010
HRRWXR

CURRENT HOURLY OBSERVATIONS ACROSS
MUCH OF THE UPPER MISSISSIPPI VALLEY
NATIONAL WEATHER SERVICE LA CROSSE WI
400 AM CST SUN DEC 17 2017


...SOUTHEAST MINNESOTA...


CITY           SKY/WX    TMP DP  RH WIND       PRES   REMARKS
ROCHESTER      FOG       24  24 100 NE8       30.05F VSB 1/4 WCI  15
ROCHESTER/MAYO CLOUDY    25  25 100 E7        30.07S VSB 3/4 WCI  17
WINONA         CLOUDY    30  28  93 E6        30.12S WCI  24
AUSTIN         FOG       23  21  93 E6        30.05S VSB 1/2 WCI  16
ALBERT LEA     CLOUDY    19  18  93 E3        30.04F FOG
DODGE CENTER   SNOW      21  21 100 E6        30.05F VSB 1/4 WCI  14
PRESTON        FOG       25  24  94 NE5       30.06R VSB 1/4 WCI  20
OWATONNA       CLOUDY    19  18  93 NE5       30.06S FOG     WCI  13
FARIBAULT      PTCLDY    19  18  93 CALM      30.09R
$$

...ELSEWHERE IN MINNESOTA...


CITY           SKY/WX    TMP DP  RH WIND       PRES   REMARKS
MINNEAPOLIS    CLOUDY    20  18  92 N3        30.11S
INTNL FALLS    CLOUDY    22  19  89 VRB3      30.02F
DULUTH         CLOUDY    20  18  92 CALM      30.06F
RED WING       CLOUDY    25  21  86 E3        30.09S FOG
REDWOOD FALLS  CLOUDY    27  25  92 NE5       30.08F FOG     WCI  22
MANKATO        CLOUDY    21  19  92 N6        30.08R WCI  13
WORTHINGTON    SNOW      25  24  96 NE10      30.05S VSB 1/2 WCI  15
FAIRMONT       CLOUDY    25  24  96 N10       30.06S FOG     WCI  15
$$

...SOUTHWEST WISCONSIN...


CITY           SKY/WX    TMP DP  RH WIND       PRES   REMARKS
LA CROSSE      CLOUDY    30  26  85 CALM      30.10S
PRAIRIE DU CHI CLOUDY    32  28  84 E3        30.08R
BOSCOBEL       CLOUDY    32  27  81 E7        30.09F WCI  26
LONE ROCK      CLOUDY    32  29  88 E7        30.09F FOG     WCI  26
PLATTEVILLE    CLOUDY    31  31 100 E8        30.06S WCI  24
FORT MC COY    CLOUDY    27  24  87 E3        30.11S
CAMP DOUGLAS   CLOUDY   N/A N/A N/A E3        30.11S
MAUSTON-NEW LI CLOUDY    28  24  86 CALM      30.10S
VIROQUA        CLOUDY    27  27 100 CALM      30.06S
WIS DELLS      CLOUDY    27  24  88 NE6       30.08F WCI  20
$$

...ELSEWHERE IN WISCONSIN...


CITY           SKY/WX    TMP DP  RH WIND       PRES   REMARKS
MILWAUKEE      CLOUDY    35  31  85 NE9       30.10S WCI  28
MADISON        CLOUDY    32  29  88 E6        30.08F WCI  26
GREEN BAY      CLOUDY    27  22  81 N6        30.15R WCI  20
EAU CLAIRE     CLOUDY    25  22  88 E5        30.10F WCI  19
BLACK RVR FLS  CLOUDY    27  22  82 CALM      30.10F
MEDFORD        CLOUDY    22  19  91 E7        30.08F WCI  13
WAUSAU         CLOUDY    22  19  89 E6        30.10F WCI  14
WIS RAPIDS     CLOUDY    24  19  81 E7        30.13R WCI  16
MARSHFIELD     CLOUDY    23  20  88 E9        30.09S WCI  13
RICE LAKE      CLOUDY    23  22  93 CALM      30.11F
$$

...NORTHEAST IOWA...


CITY           SKY/WX    TMP DP  RH WIND       PRES   REMARKS
WATERLOO       CLOUDY    27  26  96 E7        30.03S FOG     WCI  19
DUBUQUE        MOCLDY    29  28  96 NE10      30.04S FOG     WCI  20
DECORAH        CLOUDY    28  28 100 E8        30.05R WCI  20
MASON CITY     FOG       22  20  92 NE9       30.03F VSB 1   WCI  12
CHARLES CITY   CLOUDY    28  28 100 E12       30.04S FOG     WCI  18
OELWEIN        CLOUDY    30  30 100 E13       30.03S FOG     WCI  20
$$

...ELSEWHERE IN IOWA...


CITY           SKY/WX    TMP DP  RH WIND       PRES   REMARKS
DES MOINES     CLOUDY    31  24  75 NE5       29.98S WCI  26
IOWA CITY      CLOUDY    31  26  82 NE5       30.04S WCI  26
FORT DODGE     CLOUDY    23  21  92 N9        30.02S WCI  13
MARSHALLTOWN   CLOUDY    30  26  85 E13       29.99F WCI  20
CEDAR RAPIDS   CLOUDY    29  26  89 E8        30.01R WCI  21
$$

...NORTHERN ILLINOIS...


CITY           SKY/WX    TMP DP  RH WIND       PRES   REMARKS
CHICAGO-OHARE  CLOUDY    33  31  92 N7        30.05F FOG     WCI  27
CHICAGO-MIDWAY CLOUDY    36  34  92 CALM      30.05F
MOLINE         CLOUDY    31  26  82 NE7       30.02S WCI  24
ROCKFORD       CLOUDY    34  32  92 NE7       30.07F FOG     WCI  28
PEORIA         CLOUDY    36  29  75 S3        30.04R
$$

NOTE: "FAIR" INDICATES FEW OR NO CLOUDS BELOW 12,000 FEET WITH NO
SIGNIFICANT WEATHER AND/OR OBSTRUCTIONS TO VISIBILITY. WIND
SPEEDS ARE IN MILES-PER-HOUR.




USA.gov is the U.S. government's official web portal to all federal, state and local government web resources and services.